DX 1

导读 | 豆包AI

DX 1卫星于2014年7月8日由独联体(CIS)发射升空。作为独联体在2014年航天发射活动中的重要航天器,该卫星的成功入轨体现了独联体地区的航天发射技术能力。其发射任务旨在完成特定空间部署目标,进一步拓展了独联体在航天领域的应用布局,是2014年国际航天发射序列中一项值得记录的发射任务。

基本信息
目录编号:
40071
目录名称:
DX 1
国际标识:
2014-037C
轨道中心:
EARTH
卫星名称:
DX 1
卫星全名:
--
卫星状态:
在轨 (已飞行4257 天)
发射日期:
2014-07-08 UTC
国别 :
俄罗斯(独联体) (CIS)
星等 :
--
轨道信息
数据来源 国际轨道数据
星历时间: 2026-03-04T20:27:50+0800
7小时前
查看轨道信息
半长轴: 6977.349km
偏心率: 0.000571
轨道倾角: 98.375°
近地点辐角 252.301°
升交点赤经 18.975°
平近点角 107.758°
近地点: 595.227km
远地点: 603.197km
周期: 96.671分钟
每日圈数: 14.895912
详细信息
使用方式:
暂无
2D轨道图
3D轨道图
轨道高度分析图
轨道倾角分析图
轨道综合分析图
查看轨道综合分析图